GW4085 Weather Reports


Display with metric or nautical units.
time (UTC)temp
F
wind
direction
speed
MPH
gust
MPH
rain 1hr
in
rain 24hr
in
rain mn
in
humidity
%
barometer
mb
20260906173758 96 53 1.0 3.0 0.00 0.00 0.00 45 1015.9
20260906173254 99 7 3.0 3.0 0.00 0.00 0.00 42 1016.1
20260906172753 99 186 2.0 3.0 0.00 0.00 0.00 43 1016.0
20260906172249 99 195 0.0 3.0 0.00 0.00 0.00 44 1016.2
20260906171744 99 1 4.0 6.0 0.00 0.00 0.00 42 1016.3
20260906171239 99 171 0.0 2.0 0.00 0.00 0.00 44 1016.3
20260906170735 98 179 0.0 3.0 0.00 0.00 0.00 47 1016.5
20260906170231 99 73 2.0 6.0 0.00 0.00 0.00 44 1016.5
20260906165727 98 182 0.0 2.0 0.00 0.00 0.00 48 1016.4
20260906165226 97 150 0.0 1.0 0.00 0.00 0.00 51 1016.5
20260906164721 97 187 1.0 3.0 0.00 0.00 0.00 49 1016.6
20260906164216 97 186 0.0 2.0 0.00 0.00 0.00 47 1016.6
20260906163712 97 324 3.0 3.0 0.00 0.00 0.00 48 1016.5
20260906163208 96 88 4.0 6.0 0.00 0.00 0.00 48 1016.9
20260906162705 96 0 0.0 2.0 0.00 0.00 0.00 49 1016.6
20260906162204 96 44 3.0 3.0 0.00 0.00 0.00 48 1016.9
20260906161658 96 4 2.0 6.0 0.00 0.00 0.00 50 1016.8
20260906161157 96 9 1.0 3.0 0.00 0.00 0.00 49 1016.8
20260906160652 95 127 1.0 1.0 0.00 0.00 0.00 49 1016.7
20260906160150 95 202 0.0 2.0 0.00 0.00 0.00 50 1016.9
20260906155648 95 200 1.0 1.0 0.00 0.00 0.00 53 1016.7
20260906155144 95 119 0.0 1.0 0.00 0.00 0.00 52 1016.9
20260906154638 94 160 0.0 0.0 0.00 0.00 0.00 52 1016.7
20260906154133 94 15 0.0 0.0 0.00 0.00 0.00 53 1016.9
20260906153632 93 162 0.0 0.0 0.00 0.00 0.00 53 1016.8
20260906153127 93 171 0.0 0.0 0.00 0.00 0.00 60 1016.6
20260906152626 93 192 0.0 0.0 0.00 0.00 0.00 53 1017.0
20260906152120 92 102 0.0 0.0 0.00 0.00 0.00 53 1016.8
20260906151615 92 167 0.0 0.0 0.00 0.00 0.00 54 1016.8
20260906151111 91 187 0.0 0.0 0.00 0.00 0.00 59 1016.5
20260906150606 90 165 0.0 0.0 0.00 0.00 0.00 62 1016.5
20260906145600 91 84 0.0 0.0 0.00 0.00 0.00 61 1016.4
20260906145055 90 152 0.0 0.0 0.00 0.00 0.00 62 1016.7
20260906144544 90 122 0.0 0.0 0.00 0.00 0.00 60 1016.4
20260906144040 89 114 0.0 0.0 0.00 0.00 0.00 62 1016.9
20260906143535 89 156 0.0 0.0 0.00 0.00 0.00 64 1016.7
20260906143031 87 157 0.0 0.0 0.00 0.00 0.00 66 1016.6
20260906142531 87 169 0.0 0.0 0.00 0.00 0.00 67 1016.6
20260906142027 86 148 0.0 0.0 0.00 0.00 0.00 68 1016.5
20260906141525 85 152 0.0 0.0 0.00 0.00 0.00 70 1016.6
20260906141020 84 160 0.0 0.0 0.00 0.00 0.00 70 1016.4
20260906140515 84 148 0.0 0.0 0.00 0.00 0.00 71 1016.4
20260906140014 83 162 0.0 0.0 0.00 0.00 0.00 72 1016.7
20260906135511 83 143 0.0 0.0 0.00 0.00 0.00 74 1016.4
20260906135007 82 151 0.0 0.0 0.00 0.00 0.00 75 1016.5
20260906134502 81 154 0.0 0.0 0.00 0.00 0.00 78 1016.6
20260906133957 81 122 0.0 0.0 0.00 0.00 0.00 77 1016.5
20260906133453 80 154 0.0 0.0 0.00 0.00 0.00 79 1016.4
20260906132948 79 154 0.0 0.0 0.00 0.00 0.00 81 1016.7
20260906132443 78 171 0.0 0.0 0.00 0.00 0.00 80 1016.5
20260906131938 79 169 0.0 0.0 0.00 0.00 0.00 80 1016.4
20260906131434 79 164 0.0 0.0 0.00 0.00 0.00 79 1016.5
20260906130930 78 151 0.0 0.0 0.00 0.00 0.00 80 1016.2
20260906130428 78 178 0.0 0.0 0.00 0.00 0.00 79 1016.1
20260906125923 77 151 0.0 0.0 0.00 0.00 0.00 83 1016.0
20260906125420 76 152 0.0 0.0 0.00 0.00 0.00 84 1016.2
20260906124919 75 153 0.0 0.0 0.00 0.00 0.00 86 1016.0
20260906124416 75 154 0.0 0.0 0.00 0.00 0.00 88 1015.9
20260906123910 75 147 0.0 0.0 0.00 0.00 0.00 89 1016.2
20260906123409 74 155 0.0 0.0 0.00 0.00 0.00 90 1015.9
20260906122904 73 148 0.0 0.0 0.00 0.00 0.00 91 1015.8
20260906122359 73 136 0.0 0.0 0.00 0.00 0.00 92 1015.7
20260906121856 72 140 0.0 0.0 0.00 0.00 0.00 93 1015.8
20260906121351 72 142 0.0 0.0 0.00 0.00 0.00 93 1015.8
20260906120848 71 153 0.0 0.0 0.00 0.00 0.00 93 1015.5
20260906120343 71 161 0.0 0.0 0.00 0.00 0.00 93 1015.6
20260906115839 71 162 0.0 0.0 0.00 0.00 0.00 93 1015.9
20260906115334 71 148 0.0 0.0 0.00 0.00 0.00 93 1015.6
20260906114833 71 154 0.0 0.0 0.00 0.00 0.00 92 1015.2
20260906114329 71 162 0.0 0.0 0.00 0.00 0.00 92 1015.5
20260906113824 71 159 0.0 0.0 0.00 0.00 0.00 92 1015.5
20260906113323 71 157 0.0 0.0 0.00 0.00 0.00 92 1015.2
20260906112819 71 157 0.0 0.0 0.00 0.00 0.00 92 1015.5
20260906112315 71 157 0.0 0.0 0.00 0.00 0.00 92 1015.5
20260906111814 71 160 0.0 0.0 0.00 0.00 0.00 92 1015.3
20260906111314 71 161 0.0 0.0 0.00 0.00 0.00 91 1015.5
20260906110809 71 160 0.0 0.0 0.00 0.00 0.00 91 1015.4
20260906110305 71 160 0.0 0.0 0.00 0.00 0.00 91 1015.3
20260906105804 72 161 0.0 0.0 0.00 0.00 0.00 91 1015.2
20260906105259 72 150 0.0 0.0 0.00 0.00 0.00 91 1015.3
20260906104755 72 161 0.0 0.0 0.00 0.00 0.00 91 1015.2
20260906104253 72 158 0.0 0.0 0.00 0.00 0.00 91 1015.2
20260906103751 72 162 0.0 0.0 0.00 0.00 0.00 90 1015.3
20260906103246 72 153 0.0 0.0 0.00 0.00 0.00 90 1015.2
20260906102741 73 159 0.0 0.0 0.00 0.00 0.00 90 1015.1
20260906102234 73 146 0.0 0.0 0.00 0.00 0.00 89 1015.1
20260906101729 72 141 0.0 0.0 0.00 0.00 0.00 89 1015.0
20260906101219 73 163 0.0 0.0 0.00 0.00 0.00 89 1014.8
20260906100714 73 163 0.0 0.0 0.00 0.00 0.00 89 1015.0
20260906100209 73 150 0.0 0.0 0.00 0.00 0.00 88 1015.0
20260906095704 73 155 0.0 0.0 0.00 0.00 0.00 88 1015.2
20260906095159 73 165 0.0 0.0 0.00 0.00 0.00 88 1015.0
20260906094657 73 171 0.0 0.0 0.00 0.00 0.00 88 1015.0
20260906094153 73 159 0.0 0.0 0.00 0.00 0.00 88 1015.0
20260906093649 73 155 0.0 0.0 0.00 0.00 0.00 88 1015.0
20260906093144 73 155 0.0 0.0 0.00 0.00 0.00 87 1015.0
20260906092638 73 155 0.0 0.0 0.00 0.00 0.00 87 1015.1
20260906092133 73 165 0.0 0.0 0.00 0.00 0.00 87 1014.9
20260906091629 73 167 0.0 0.0 0.00 0.00 0.00 87 1015.0
20260906091125 74 167 0.0 0.0 0.00 0.00 0.00 86 1014.9
20260906090620 74 167 0.0 0.0 0.00 0.00 0.00 86 1015.0
20260906090115 74 149 0.0 0.0 0.00 0.00 0.00 85 1014.9
20260906085614 74 151 0.0 0.0 0.00 0.00 0.00 84 1015.0
20260906085108 75 117 0.0 0.0 0.00 0.00 0.00 84 1014.9
20260906084603 75 160 0.0 0.0 0.00 0.00 0.00 83 1014.4
20260906084102 75 159 0.0 0.0 0.00 0.00 0.00 83 1014.8
20260906083558 75 151 0.0 0.0 0.00 0.00 0.00 82 1015.0
20260906083057 74 163 0.0 0.0 0.00 0.00 0.00 83 1014.9
20260906082553 74 125 0.0 0.0 0.00 0.00 0.00 84 1014.8
20260906082048 74 163 0.0 0.0 0.00 0.00 0.00 83 1014.8
20260906081544 74 163 0.0 0.0 0.00 0.00 0.00 83 1014.8
20260906081039 75 163 0.0 0.0 0.00 0.00 0.00 84 1014.7
20260906080536 75 164 0.0 0.0 0.00 0.00 0.00 84 1014.8
20260906080031 75 178 0.0 0.0 0.00 0.00 0.00 84 1014.9
20260906075525 75 154 0.0 0.0 0.00 0.00 0.00 84 1014.7
20260906075020 75 163 0.0 0.0 0.00 0.00 0.00 84 1015.0
20260906074515 75 158 0.0 0.0 0.00 0.00 0.00 84 1014.8
20260906074014 75 155 0.0 0.0 0.00 0.00 0.00 84 1014.9
20260906073509 75 160 0.0 0.0 0.00 0.00 0.00 85 1014.6
20260906073005 75 165 0.0 0.0 0.00 0.00 0.00 85 1014.8
20260906072459 75 163 0.0 0.0 0.00 0.00 0.00 85 1014.9
20260906071955 75 167 0.0 0.0 0.00 0.00 0.00 84 1015.0
20260906071451 76 165 0.0 0.0 0.00 0.00 0.00 84 1015.0
20260906070946 76 163 0.0 0.0 0.00 0.00 0.00 83 1015.0
20260906070442 76 148 0.0 0.0 0.00 0.00 0.00 83 1014.8
20260906065938 76 142 0.0 0.0 0.00 0.00 0.00 83 1015.0
20260906065432 76 161 0.0 0.0 0.00 0.00 0.00 83 1015.2
20260906064928 76 158 0.0 0.0 0.00 0.00 0.00 82 1014.9
20260906064424 76 160 0.0 0.0 0.00 0.00 0.00 82 1015.1
20260906063918 77 163 0.0 0.0 0.00 0.00 0.00 81 1015.0
20260906063408 77 165 0.0 0.0 0.00 0.00 0.00 80 1015.2
20260906062903 78 147 0.0 0.0 0.00 0.00 0.00 77 1015.3
20260906062403 78 151 0.0 0.0 0.00 0.00 0.00 78 1015.1
20260906061858 77 147 0.0 0.0 0.00 0.00 0.00 78 1015.0
20260906061354 77 147 0.0 0.0 0.00 0.00 0.00 79 1015.1
20260906060848 77 149 0.0 0.0 0.00 0.00 0.00 79 1015.2
20260906060346 77 148 0.0 0.0 0.00 0.00 0.00 80 1015.1
20260906055842 77 159 0.0 0.0 0.00 0.00 0.00 80 1015.4
20260906055337 77 165 0.0 0.0 0.00 0.00 0.00 80 1015.3
20260906054832 77 173 0.0 0.0 0.00 0.00 0.00 79 1015.2
20260906054327 77 159 0.0 0.0 0.00 0.00 0.00 79 1015.1
20260906053824 77 165 0.0 0.0 0.00 0.00 0.00 78 1015.3
20260906053319 78 161 0.0 0.0 0.00 0.00 0.00 78 1015.2
20260906052814 78 160 0.0 0.0 0.00 0.00 0.00 78 1015.1
20260906052311 78 165 0.0 0.0 0.00 0.00 0.00 77 1015.1
20260906051808 78 147 0.0 0.0 0.00 0.00 0.00 77 1015.0
20260906051307 78 146 0.0 0.0 0.00 0.00 0.00 77 1014.9
20260906050802 78 169 0.0 0.0 0.00 0.00 0.00 78 1014.9
20260906050258 78 169 0.0 0.0 0.00 0.00 0.00 78 1014.9
20260906045756 78 167 0.0 0.0 0.00 0.00 0.00 77 1015.0
20260906045251 79 167 0.0 0.0 0.00 0.00 0.00 76 1015.0
20260906044747 79 167 0.0 0.0 0.00 0.00 0.00 75 1015.0
20260906044242 79 167 0.0 0.0 0.00 0.00 0.00 76 1014.8
20260906043738 79 163 0.0 0.0 0.00 0.00 0.00 75 1015.0
20260906043234 79 163 0.0 0.0 0.00 0.00 0.00 75 1015.0
20260906042733 79 165 0.0 0.0 0.00 0.00 0.00 75 1015.0
20260906042232 79 167 0.0 0.0 0.00 0.00 0.00 75 1015.2
20260906041728 80 167 0.0 0.0 0.00 0.00 0.00 74 1014.9
20260906041223 80 163 0.0 0.0 0.00 0.00 0.00 73 1014.7
20260906040719 80 163 0.0 0.0 0.00 0.00 0.00 73 1015.0
20260906040214 80 163 0.0 0.0 0.00 0.00 0.00 72 1014.7
20260906035709 80 163 0.0 0.0 0.00 0.00 0.00 72 1014.7
20260906035204 80 163 0.0 0.0 0.00 0.00 0.00 72 1014.9
20260906034659 80 162 0.0 0.0 0.00 0.00 0.00 71 1014.7
20260906034154 80 163 0.0 0.0 0.00 0.00 0.00 71 1014.8
20260906033650 81 165 0.0 0.0 0.00 0.00 0.00 71 1014.6
20260906033149 81 162 0.0 0.0 0.00 0.00 0.00 69 1014.8
20260906032646 82 152 0.0 0.0 0.00 0.00 0.00 68 1014.6
20260906032145 82 152 0.0 0.0 0.00 0.00 0.00 68 1014.8
20260906031636 82 152 0.0 0.0 0.00 0.00 0.00 67 1014.8
20260906031131 82 165 0.0 0.0 0.00 0.00 0.00 67 1014.7
20260906030630 82 160 0.0 0.0 0.00 0.00 0.00 66 1014.8
20260906030126 82 155 0.0 0.0 0.00 0.00 0.00 66 1014.8
20260906025625 82 165 0.0 0.0 0.00 0.00 0.00 67 1014.6
20260906025124 82 165 0.0 0.0 0.00 0.00 0.00 66 1014.4
20260906024619 82 165 0.0 0.0 0.00 0.00 0.00 66 1014.2
20260906024113 82 165 0.0 0.0 0.00 0.00 0.00 66 1014.6
20260906023609 83 165 0.0 0.0 0.00 0.00 0.00 65 1014.2
20260906023103 83 165 0.0 0.0 0.00 0.00 0.00 65 1014.4
20260906022559 84 167 0.0 0.0 0.00 0.00 0.00 64 1014.3
20260906022055 84 153 0.0 0.0 0.00 0.00 0.00 63 1014.1
20260906021550 84 154 0.0 0.0 0.00 0.00 0.00 63 1014.1
20260906021048 85 167 0.0 0.0 0.00 0.00 0.00 62 1014.0
20260906020543 86 167 0.0 0.0 0.00 0.00 0.00 61 1014.2
20260906020043 87 160 0.0 0.0 0.00 0.00 0.00 57 1013.9
20260906015542 87 137 0.0 0.0 0.00 0.00 0.00 57 1013.9
20260906015041 87 137 0.0 1.0 0.00 0.00 0.00 56 1013.9
20260906014536 86 63 0.0 0.0 0.00 0.00 0.00 57 1013.8
20260906014032 86 136 0.0 0.0 0.00 0.00 0.00 59 1013.5
20260906013527 85 148 0.0 0.0 0.00 0.00 0.00 61 1013.6
20260906013023 85 158 0.0 0.0 0.00 0.00 0.00 60 1013.6
20260906012518 86 157 0.0 0.0 0.00 0.00 0.00 60 1013.6
20260906012017 86 169 0.0 0.0 0.00 0.00 0.00 59 1013.4
20260906011514 87 170 0.0 0.0 0.00 0.00 0.00 58 1013.4
20260906011013 88 161 0.0 0.0 0.00 0.00 0.00 55 1013.5
20260906010509 89 157 0.0 0.0 0.00 0.00 0.00 54 1013.4
20260906010005 89 148 0.0 0.0 0.00 0.00 0.00 52 1013.6
20260906005504 89 136 0.0 1.0 0.00 0.00 0.00 53 1013.4
20260906005003 89 120 0.0 0.0 0.00 0.00 0.00 53 1013.4
20260906004502 89 155 0.0 0.0 0.00 0.00 0.00 53 1013.2
20260906003958 90 160 0.0 0.0 0.00 0.00 0.00 52 1013.3
20260906003453 91 165 0.0 0.0 0.00 0.00 0.00 51 1013.3
20260906002949 92 162 0.0 0.0 0.00 0.00 0.00 49 1013.3
20260906002448 93 162 0.0 0.0 0.00 0.00 0.00 46 1013.3
20260906001943 94 161 0.0 0.0 0.00 0.00 0.00 46 1013.4
20260906001439 95 179 0.0 0.0 0.00 0.00 0.00 45 1013.3
20260906000928 95 162 0.0 0.0 0.00 0.00 0.00 43 1013.5
20260906000425 95 162 0.0 0.0 0.00 0.00 0.00 43 1013.3
20260905235918 96 160 0.0 0.0 0.00 0.00 0.00 43 1013.1
20260905235413 96 162 0.0 1.0 0.00 0.00 0.00 41 1013.4
20260905234908 96 172 0.0 0.0 0.00 0.00 0.00 42 1013.3
20260905234403 97 180 1.0 2.0 0.00 0.00 0.00 41 1013.2
20260905233858 97 180 0.0 0.0 0.00 0.00 0.00 41 1013.3
20260905233353 98 184 0.0 1.0 0.00 0.00 0.00 41 1013.2
20260905232852 99 183 0.0 1.0 0.00 0.00 0.00 40 1013.1
20260905232349 99 178 0.0 2.0 0.00 0.00 0.00 38 1013.1
20260905231844 100 184 0.0 1.0 0.00 0.00 0.00 39 1013.3
20260905231338 100 176 0.0 0.0 0.00 0.00 0.00 37 1013.1
20260905230835 100 174 0.0 0.0 0.00 0.00 0.00 38 1013.3
20260905230332 100 175 0.0 0.0 0.00 0.00 0.00 38 1013.1
20260905225832 102 188 0.0 2.0 0.00 0.00 0.00 37 1013.1
20260905225327 101 189 0.0 1.0 0.00 0.00 0.00 36 1013.0
20260905224821 101 179 0.0 0.0 0.00 0.00 0.00 37 1013.0
20260905224317 101 19 1.0 2.0 0.00 0.00 0.00 37 1013.0
20260905223812 101 11 0.0 0.0 0.00 0.00 0.00 37 1013.0
20260905223310 101 137 0.0 2.0 0.00 0.00 0.00 37 1013.0
20260905222805 102 205 0.0 2.0 0.00 0.00 0.00 37 1013.0
20260905222306 102 185 0.0 0.0 0.00 0.00 0.00 38 1013.2
20260905221800 101 185 1.0 1.0 0.00 0.00 0.00 37 1013.2
20260905221256 100 184 0.0 0.0 0.00 0.00 0.00 38 1013.2
20260905220752 100 26 1.0 1.0 0.00 0.00 0.00 39 1013.2
20260905220248 100 343 4.0 5.0 0.00 0.00 0.00 38 1013.2
20260905215747 100 7 2.0 2.0 0.00 0.00 0.00 39 1013.2
20260905215243 100 196 1.0 2.0 0.00 0.00 0.00 40 1013.3
20260905214739 100 178 0.0 5.0 0.00 0.00 0.00 41 1013.4
20260905214235 100 32 2.0 5.0 0.00 0.00 0.00 39 1013.5
20260905213730 102 5 2.0 2.0 0.00 0.00 0.00 39 1013.3
20260905213226 101 287 3.0 5.0 0.00 0.00 0.00 39 1013.3
20260905212720 103 186 0.0 5.0 0.00 0.00 0.00 38 1013.6
20260905212219 102 181 0.0 1.0 0.00 0.00 0.00 39 1013.3
20260905211714 103 184 0.0 1.0 0.00 0.00 0.00 38 1013.7
20260905211209 102 304 1.0 2.0 0.00 0.00 0.00 37 1013.5
20260905210706 101 178 0.0 1.0 0.00 0.00 0.00 38 1013.7
20260905210205 101 193 3.0 3.0 0.00 0.00 0.00 39 1013.8
20260905205704 103 201 3.0 3.0 0.00 0.00 0.00 37 1014.0
20260905205159 102 189 0.0 1.0 0.00 0.00 0.00 38 1014.1
20260905204658 101 210 0.0 2.0 0.00 0.00 0.00 37 1014.2
20260905204153 101 202 0.0 2.0 0.00 0.00 0.00 41 1014.1
20260905203648 100 174 2.0 3.0 0.00 0.00 0.00 41 1014.3
20260905203144 100 202 2.0 3.0 0.00 0.00 0.00 41 1014.4
20260905202639 101 336 1.0 2.0 0.00 0.00 0.00 39 1014.6
20260905202134 101 184 0.0 0.0 0.00 0.00 0.00 39 1014.4
20260905201630 99 90 0.0 1.0 0.00 0.00 0.00 43 1014.4
20260905201129 99 50 0.0 2.0 0.00 0.00 0.00 42 1014.7
20260905200625 100 186 0.0 3.0 0.00 0.00 0.00 45 1014.8
20260905200120 100 177 0.0 1.0 0.00 0.00 0.00 45 1014.9
20260905195614 101 6 3.0 5.0 0.00 0.00 0.00 42 1014.9
20260905195109 101 62 0.0 3.0 0.00 0.00 0.00 41 1014.9
20260905194608 101 187 2.0 3.0 0.00 0.00 0.00 42 1015.0
20260905194107 100 182 1.0 2.0 0.00 0.00 0.00 41 1015.0
20260905193602 101 233 0.0 1.0 0.00 0.00 0.00 42 1014.9
20260905193057 102 214 1.0 1.0 0.00 0.00 0.00 39 1015.2
20260905192554 101 199 1.0 3.0 0.00 0.00 0.00 42 1015.1
20260905192050 101 193 0.0 2.0 0.00 0.00 0.00 44 1015.1
20260905191548 101 208 0.0 2.0 0.00 0.00 0.00 42 1015.3
20260905191047 99 137 2.0 2.0 0.00 0.00 0.00 43 1015.1
20260905190546 99 183 2.0 5.0 0.00 0.00 0.00 44 1015.3
20260905190045 98 198 3.0 5.0 0.00 0.00 0.00 44 1015.5
20260905185544 99 189 2.0 2.0 0.00 0.00 0.00 45 1015.7
20260905185044 98 189 0.0 1.0 0.00 0.00 0.00 45 1015.9
20260905184538 96 84 1.0 1.0 0.00 0.00 0.00 49 1015.7
20260905184037 96 167 0.0 1.0 0.00 0.00 0.00 46 1016.0
20260905183531 97 115 0.0 3.0 0.00 0.00 0.00 47 1016.4
20260905183027 96 178 0.0 0.0 0.00 0.00 0.00 46 1016.1
20260905182526 96 352 1.0 3.0 0.00 0.00 0.00 47 1016.0
20260905182021 96 179 1.0 2.0 0.00 0.00 0.00 48 1016.1
20260905181516 96 170 0.0 0.0 0.00 0.00 0.00 47 1016.2
20260905181015 96 134 0.0 2.0 0.00 0.00 0.00 47 1016.0
20260905180510 98 267 2.0 3.0 0.00 0.00 0.00 44 1016.3
20260905180006 99 194 1.0 3.0 0.00 0.00 0.00 45 1016.4
20260905175505 98 142 1.0 2.0 0.00 0.00 0.00 45 1016.2
20260905175001 98 161 2.0 3.0 0.00 0.00 0.00 48 1016.6
20260905174455 98 183 0.0 2.0 0.00 0.00 0.00 49 1016.6
20260905173951 98 187 1.0 3.0 0.00 0.00 0.00 47 1016.8